Location: Góry Miechowskie
(50.3599°N, 20.1803°E)
Time: 23:46:46
(UTC+00:00)

Cosmos 1869 - Pass Details

Date: 18 September 2024
Orbit: 484 x 518 km, 82.5° (Epoch: 06 October)

Event Time Altitude Azimuth Distance (km) Brightness Sun altitude
Exits shadow 00:35:00 19° 26° (NNE) 1,270 5.8 -31.8°
Drops below altitude 10° 00:36:12 10° 20° (NNE) 1,732 6.7 -31.7°
Sets 00:38:21 0° 15° (NNE) 2,615 7.7 -31.5°
